sat.trackr.live / text

‹ back to catalog

STARLINK-34977

NORAD 65245 · 2025-179L

PAYLOAD ACTIVE UNKNOWN

§ Identity

Operator
Country
US
Launch date
2025-08-18
Launch site
AFWTR
Launch vehicle
Mass (kg)
RCS (m²)

Purposes: comms

External: N2YO · Heavens-Above · Gunter

§ Orbital elements

Epoch: 2026-09-20T09:20:24.830592Z

Period
93.91 min
Inclination
97.2835°
Eccentricity
0.0000581
Mean motion
15.33446102 rev/d
Perigee alt
465.1 km
Apogee alt
465.9 km
Semi-major
6,843.7 km
B*
4.3298e-4
RAAN
302.6788°
Arg perigee
83.9221°
Mean anomaly
276.2088°
Rev number
6,126

§ Raw data

STARLINK-349771 65245U 25179L   26263.38917628  .00013929  00000+0  43298-3 0  99912 65245  97.2835 302.6788 0000581  83.9221 276.2088 15.33446102 61268

JSON: /api/v1/satellites/65245 · /tle

For live sub-satellite position, see the globe view (requires WebGL).

§ Visibility from observer

Set your observer location to see the next 7 days of passes ≥ 10°. The values pass through the URL so the page stays shareable.

No JS? Fill the form by hand. The geolocation button needs JavaScript.